Year,Month,Day,Hour,Minute,Value (Times are PST for windspeed in km/hr)
2010,05,04,00,00,13.40
2010,05,04,00,01,17.00
2010,05,04,00,02,16.50
2010,05,04,00,03,19.20
2010,05,04,00,04,19.30
2010,05,04,00,05,17.10
2010,05,04,00,06,16.30
2010,05,04,00,07,14.10
2010,05,04,00,08,10.50
2010,05,04,00,09,13.00
2010,05,04,00,10,18.00
2010,05,04,00,11,7.90
2010,05,04,00,12,15.60
2010,05,04,00,13,18.50
2010,05,04,00,14,13.00
2010,05,04,00,15,11.20
2010,05,04,00,16,11.00
2010,05,04,00,17,9.30
2010,05,04,00,18,14.50
2010,05,04,00,19,14.60
2010,05,04,00,20,21.30
2010,05,04,00,21,18.40
2010,05,04,00,22,19.40
2010,05,04,00,23,18.80
2010,05,04,00,24,21.20
2010,05,04,00,25,16.30
2010,05,04,00,26,16.60
2010,05,04,00,27,18.30
2010,05,04,00,28,20.40
2010,05,04,00,29,23.80
2010,05,04,00,30,19.80
2010,05,04,00,31,18.80
2010,05,04,00,32,21.80
2010,05,04,00,33,17.70
2010,05,04,00,34,16.00
2010,05,04,00,35,22.90
2010,05,04,00,36,22.70
2010,05,04,00,37,16.30
2010,05,04,00,38,20.80
2010,05,04,00,39,21.00
2010,05,04,00,40,19.50
2010,05,04,00,41,21.70
2010,05,04,00,42,21.60
2010,05,04,00,43,18.60
2010,05,04,00,44,17.20
2010,05,04,00,45,23.40
2010,05,04,00,46,20.70
2010,05,04,00,47,19.60
2010,05,04,00,48,16.30
2010,05,04,00,49,16.30
2010,05,04,00,50,14.90
2010,05,04,00,51,14.50
2010,05,04,00,52,15.80
2010,05,04,00,53,18.00
2010,05,04,00,54,20.80
2010,05,04,00,55,15.20
2010,05,04,00,56,18.70
2010,05,04,00,57,15.30
2010,05,04,00,58,13.80
2010,05,04,00,59,13.30
2010,05,04,01,00,18.50
2010,05,04,01,01,16.70
2010,05,04,01,02,16.60
2010,05,04,01,03,20.10
2010,05,04,01,04,16.30
2010,05,04,01,05,16.10
2010,05,04,01,06,25.30
2010,05,04,01,07,19.80
2010,05,04,01,08,23.20
2010,05,04,01,09,24.60
2010,05,04,01,10,24.50
2010,05,04,01,11,17.60
2010,05,04,01,12,26.80
2010,05,04,01,13,23.90
2010,05,04,01,14,19.60
2010,05,04,01,15,16.30
2010,05,04,01,16,20.40
2010,05,04,01,17,22.60
2010,05,04,01,18,16.90
2010,05,04,01,19,31.20
2010,05,04,01,20,30.70
2010,05,04,01,21,25.10
2010,05,04,01,22,20.90
2010,05,04,01,23,21.80
2010,05,04,01,24,20.80
2010,05,04,01,25,13.80
2010,05,04,01,26,12.10
2010,05,04,01,27,11.00
2010,05,04,01,28,12.60
2010,05,04,01,29,16.70
2010,05,04,01,30,17.20
2010,05,04,01,31,10.00
2010,05,04,01,32,7.60
2010,05,04,01,33,15.60
2010,05,04,01,34,22.80
2010,05,04,01,35,13.80
2010,05,04,01,36,16.50
2010,05,04,01,37,11.30
2010,05,04,01,38,10.90
2010,05,04,01,39,20.10
2010,05,04,01,40,22.40
2010,05,04,01,41,15.80
2010,05,04,01,42,10.80
2010,05,04,01,43,15.80
2010,05,04,01,44,14.90
2010,05,04,01,45,16.60
2010,05,04,01,46,16.70
2010,05,04,01,47,10.30
2010,05,04,01,48,17.40
2010,05,04,01,49,14.10
2010,05,04,01,50,14.90
2010,05,04,01,51,13.00
2010,05,04,01,52,11.70
2010,05,04,01,53,20.10
2010,05,04,01,54,15.40
2010,05,04,01,55,13.50
2010,05,04,01,56,16.30
2010,05,04,01,57,20.00
2010,05,04,01,58,13.30
2010,05,04,01,59,12.70
2010,05,04,02,00,16.30
2010,05,04,02,01,13.90
2010,05,04,02,02,15.90
2010,05,04,02,03,13.90
2010,05,04,02,04,10.50
2010,05,04,02,05,10.10
2010,05,04,02,06,13.80
2010,05,04,02,07,16.00
2010,05,04,02,08,20.70
2010,05,04,02,09,16.70
2010,05,04,02,10,16.20
2010,05,04,02,11,12.20
2010,05,04,02,12,11.90
2010,05,04,02,13,20.30
2010,05,04,02,14,20.40
2010,05,04,02,15,14.70
2010,05,04,02,16,10.20
2010,05,04,02,17,16.40
2010,05,04,02,18,13.80
2010,05,04,02,19,13.90
2010,05,04,02,20,13.90
2010,05,04,02,21,17.40
2010,05,04,02,22,14.90
2010,05,04,02,23,14.20
2010,05,04,02,24,14.20
2010,05,04,02,25,11.80
2010,05,04,02,26,15.50
2010,05,04,02,27,10.50
2010,05,04,02,28,19.20
2010,05,04,02,29,25.80
2010,05,04,02,30,20.00
2010,05,04,02,31,20.00
2010,05,04,02,32,19.60
2010,05,04,02,33,17.20
2010,05,04,02,34,15.00
2010,05,04,02,35,15.90
2010,05,04,02,36,9.80
2010,05,04,02,37,18.30
2010,05,04,02,38,20.80
2010,05,04,02,39,15.20
2010,05,04,02,40,17.00
2010,05,04,02,41,18.30
2010,05,04,02,42,24.30
2010,05,04,02,43,19.20
2010,05,04,02,44,21.80
2010,05,04,02,45,18.10
2010,05,04,02,46,16.30
2010,05,04,02,47,22.20
2010,05,04,02,48,21.30
2010,05,04,02,49,16.70
2010,05,04,02,50,11.70
2010,05,04,02,51,11.20
2010,05,04,02,52,9.80
2010,05,04,02,53,12.30
2010,05,04,02,54,18.00
2010,05,04,02,55,16.60
2010,05,04,02,56,18.30
2010,05,04,02,57,18.70
2010,05,04,02,58,20.40
2010,05,04,02,59,18.50
2010,05,04,03,00,17.20
2010,05,04,03,01,13.20
2010,05,04,03,02,19.60
2010,05,04,03,03,18.00
2010,05,04,03,04,9.70
2010,05,04,03,05,12.90
2010,05,04,03,06,10.70
2010,05,04,03,07,11.00
2010,05,04,03,08,15.90
2010,05,04,03,09,11.40
2010,05,04,03,10,11.50
2010,05,04,03,11,10.70
2010,05,04,03,12,20.30
2010,05,04,03,13,20.40
2010,05,04,03,14,18.70
2010,05,04,03,15,16.00
2010,05,04,03,16,15.60
2010,05,04,03,17,11.30
2010,05,04,03,18,12.00
2010,05,04,03,19,19.70
2010,05,04,03,20,20.50
2010,05,04,03,21,15.70
2010,05,04,03,22,13.90
2010,05,04,03,23,14.40
2010,05,04,03,24,17.10
2010,05,04,03,25,18.70
2010,05,04,03,26,12.80
2010,05,04,03,27,18.60
2010,05,04,03,28,19.00
2010,05,04,03,29,16.80
2010,05,04,03,30,20.00
2010,05,04,03,31,15.80
2010,05,04,03,32,15.90
2010,05,04,03,33,18.50
2010,05,04,03,34,18.60
2010,05,04,03,35,15.90
2010,05,04,03,36,17.50
2010,05,04,03,37,21.10
2010,05,04,03,38,22.20
2010,05,04,03,39,19.20
2010,05,04,03,40,20.00
2010,05,04,03,41,17.70
2010,05,04,03,42,19.40
2010,05,04,03,43,19.10
2010,05,04,03,44,20.60
2010,05,04,03,45,13.50
2010,05,04,03,46,21.20
2010,05,04,03,47,24.90
2010,05,04,03,48,22.70
2010,05,04,03,49,27.80
2010,05,04,03,50,21.50
2010,05,04,03,51,26.60
2010,05,04,03,52,25.50
2010,05,04,03,53,22.70
2010,05,04,03,54,21.30
2010,05,04,03,55,21.60
2010,05,04,03,56,13.20
2010,05,04,03,57,15.90
2010,05,04,03,58,17.10
2010,05,04,03,59,18.00
2010,05,04,04,00,14.60
2010,05,04,04,01,21.30
2010,05,04,04,02,18.80
2010,05,04,04,03,19.00
2010,05,04,04,04,16.30
2010,05,04,04,05,12.90
2010,05,04,04,06,13.60
2010,05,04,04,07,16.90
2010,05,04,04,08,18.90
2010,05,04,04,09,16.30
2010,05,04,04,10,20.20
2010,05,04,04,11,15.60
2010,05,04,04,12,16.00
2010,05,04,04,13,11.10
2010,05,04,04,14,11.40
2010,05,04,04,15,9.80
2010,05,04,04,16,9.30
2010,05,04,04,17,11.90
2010,05,04,04,18,9.00
2010,05,04,04,19,8.80
2010,05,04,04,20,10.80
2010,05,04,04,21,13.20
2010,05,04,04,22,11.30
2010,05,04,04,23,13.40
2010,05,04,04,24,11.80
2010,05,04,04,25,14.70
2010,05,04,04,26,18.20
2010,05,04,04,27,24.50
2010,05,04,04,28,18.40
2010,05,04,04,29,16.70
2010,05,04,04,30,17.70
2010,05,04,04,31,13.90
2010,05,04,04,32,9.60
2010,05,04,04,33,13.70
2010,05,04,04,34,15.90
2010,05,04,04,35,22.40
2010,05,04,04,36,13.80
2010,05,04,04,37,11.40
2010,05,04,04,38,10.80
2010,05,04,04,39,16.10
2010,05,04,04,40,16.80
2010,05,04,04,41,13.90
2010,05,04,04,42,11.90
2010,05,04,04,43,22.00
2010,05,04,04,44,27.70
2010,05,04,04,45,23.50
2010,05,04,04,46,20.30
2010,05,04,04,47,22.90
2010,05,04,04,48,15.80
2010,05,04,04,49,15.00
2010,05,04,04,50,20.50
2010,05,04,04,51,18.20
2010,05,04,04,52,19.70
2010,05,04,04,53,22.20
2010,05,04,04,54,15.10
2010,05,04,04,55,18.50
2010,05,04,04,56,13.40
2010,05,04,04,57,13.70
2010,05,04,04,58,18.00
2010,05,04,04,59,15.60
2010,05,04,05,00,18.90
2010,05,04,05,01,14.70
2010,05,04,05,02,19.70
2010,05,04,05,03,18.30
2010,05,04,05,04,15.60
2010,05,04,05,05,16.70
2010,05,04,05,06,18.10
2010,05,04,05,07,13.90
2010,05,04,05,08,16.40
2010,05,04,05,09,21.90
2010,05,04,05,10,24.20
2010,05,04,05,11,15.90
2010,05,04,05,12,13.00
2010,05,04,05,13,14.70
2010,05,04,05,14,18.90
2010,05,04,05,15,11.40
2010,05,04,05,16,10.80
2010,05,04,05,17,8.10
2010,05,04,05,18,10.10
2010,05,04,05,19,8.60
2010,05,04,05,20,11.50
2010,05,04,05,21,14.90
2010,05,04,05,22,16.90
2010,05,04,05,23,15.60
2010,05,04,05,24,14.60
2010,05,04,05,25,14.00
2010,05,04,05,26,11.80
2010,05,04,05,27,11.60
2010,05,04,05,28,8.60
2010,05,04,05,29,10.80
2010,05,04,05,30,15.10
2010,05,04,05,31,12.80
2010,05,04,05,32,14.00
2010,05,04,05,33,9.70
2010,05,04,05,34,7.00
2010,05,04,05,35,5.30
2010,05,04,05,36,7.60
2010,05,04,05,37,12.50
2010,05,04,05,38,4.40
2010,05,04,05,39,8.10
2010,05,04,05,40,7.60
2010,05,04,05,41,13.80
2010,05,04,05,42,13.50
2010,05,04,05,43,17.40
2010,05,04,05,44,19.50
2010,05,04,05,45,13.00
2010,05,04,05,46,20.90
2010,05,04,05,47,17.90
2010,05,04,05,48,15.80
2010,05,04,05,49,21.60
2010,05,04,05,50,21.10
2010,05,04,05,51,14.10
2010,05,04,05,52,18.30
2010,05,04,05,53,18.30
2010,05,04,05,54,15.90
2010,05,04,05,55,19.20
2010,05,04,05,56,20.60
2010,05,04,05,57,20.80
2010,05,04,05,58,17.20
2010,05,04,05,59,15.80
2010,05,04,06,00,15.40
2010,05,04,06,01,17.80
2010,05,04,06,02,22.50
2010,05,04,06,03,18.30
2010,05,04,06,04,17.60
2010,05,04,06,05,13.10
2010,05,04,06,06,15.70
2010,05,04,06,07,15.90
2010,05,04,06,08,15.00
2010,05,04,06,09,15.80
2010,05,04,06,10,16.30
2010,05,04,06,11,13.80
2010,05,04,06,12,12.60
2010,05,04,06,13,11.70
2010,05,04,06,14,8.40
2010,05,04,06,15,9.70
2010,05,04,06,16,13.90
2010,05,04,06,17,9.80
2010,05,04,06,18,6.50
2010,05,04,06,19,6.30
2010,05,04,06,20,5.90
2010,05,04,06,21,3.70
2010,05,04,06,22,5.30
2010,05,04,06,23,7.70
2010,05,04,06,24,8.40
2010,05,04,06,25,12.40
2010,05,04,06,26,11.30
2010,05,04,06,27,12.90
2010,05,04,06,28,9.00
2010,05,04,06,29,9.90
2010,05,04,06,30,10.20
2010,05,04,06,31,6.70
2010,05,04,06,32,8.40
2010,05,04,06,33,13.60
2010,05,04,06,34,9.70
2010,05,04,06,35,9.40
2010,05,04,06,36,9.70
2010,05,04,06,37,9.80
2010,05,04,06,38,15.90
2010,05,04,06,39,8.60
2010,05,04,06,40,10.80
2010,05,04,06,41,10.70
2010,05,04,06,42,10.50
2010,05,04,06,43,10.40
2010,05,04,06,44,9.50
2010,05,04,06,45,11.20
2010,05,04,06,46,11.10
2010,05,04,06,47,11.10
2010,05,04,06,48,9.30
2010,05,04,06,49,13.50
2010,05,04,06,50,14.70
2010,05,04,06,51,15.80
2010,05,04,06,52,16.40
2010,05,04,06,53,17.40
2010,05,04,06,54,14.00
2010,05,04,06,55,11.00
2010,05,04,06,56,15.90
2010,05,04,06,57,17.60
2010,05,04,06,58,18.60
2010,05,04,06,59,12.00
2010,05,04,07,00,12.30
2010,05,04,07,01,10.90
2010,05,04,07,02,13.80
2010,05,04,07,03,18.70
2010,05,04,07,04,8.80
2010,05,04,07,05,8.00
2010,05,04,07,06,11.70
2010,05,04,07,07,21.00
2010,05,04,07,08,11.00
2010,05,04,07,09,12.40
2010,05,04,07,10,10.00
2010,05,04,07,11,9.00
2010,05,04,07,12,11.40
2010,05,04,07,13,9.10
2010,05,04,07,14,8.30
2010,05,04,07,15,8.30
2010,05,04,07,16,12.10
2010,05,04,07,17,10.10
2010,05,04,07,18,6.70
2010,05,04,07,19,14.40
2010,05,04,07,20,19.80
2010,05,04,07,21,18.00
2010,05,04,07,22,11.40
2010,05,04,07,23,11.10
2010,05,04,07,24,15.40
2010,05,04,07,25,10.30
2010,05,04,07,26,9.60
2010,05,04,07,27,16.20
2010,05,04,07,28,12.20
2010,05,04,07,29,12.70
2010,05,04,07,30,9.80
2010,05,04,07,31,8.50
2010,05,04,07,32,13.40
2010,05,04,07,33,13.70
2010,05,04,07,34,17.80
2010,05,04,07,35,12.90
2010,05,04,07,36,13.20
2010,05,04,07,37,9.50
2010,05,04,07,38,15.40
2010,05,04,07,39,12.90
2010,05,04,07,40,9.70
2010,05,04,07,41,14.70
2010,05,04,07,42,14.60
2010,05,04,07,43,16.90
2010,05,04,07,44,10.50
2010,05,04,07,45,13.70
2010,05,04,07,46,12.90
2010,05,04,07,47,15.20
2010,05,04,07,48,15.20
2010,05,04,07,49,11.20
2010,05,04,07,50,13.80
2010,05,04,07,51,14.30
2010,05,04,07,52,13.80
2010,05,04,07,53,16.90
2010,05,04,07,54,15.10
2010,05,04,07,55,11.90
2010,05,04,07,56,16.30
2010,05,04,07,57,16.30
2010,05,04,07,58,17.50
2010,05,04,07,59,13.50
2010,05,04,08,00,12.70
2010,05,04,08,01,19.70
2010,05,04,08,02,17.40
2010,05,04,08,03,23.80
2010,05,04,08,04,18.30
2010,05,04,08,05,16.20
2010,05,04,08,06,17.50
2010,05,04,08,07,21.00
2010,05,04,08,08,11.60
2010,05,04,08,09,16.30
2010,05,04,08,10,19.80
2010,05,04,08,11,21.10
2010,05,04,08,12,25.60
2010,05,04,08,13,20.00
2010,05,04,08,14,17.10
2010,05,04,08,15,20.10
2010,05,04,08,16,19.30
2010,05,04,08,17,20.20
2010,05,04,08,18,19.30
2010,05,04,08,19,18.40
2010,05,04,08,20,19.20
2010,05,04,08,21,21.50
2010,05,04,08,22,16.60
2010,05,04,08,23,15.60
2010,05,04,08,24,19.30
2010,05,04,08,25,17.10
2010,05,04,08,26,18.90
2010,05,04,08,27,17.90
2010,05,04,08,28,18.50
2010,05,04,08,29,17.00
2010,05,04,08,30,17.30
2010,05,04,08,31,17.30
2010,05,04,08,32,10.50
2010,05,04,08,33,9.80
2010,05,04,08,34,9.10
2010,05,04,08,35,10.40
2010,05,04,08,36,9.20
2010,05,04,08,37,11.00
2010,05,04,08,38,13.50
2010,05,04,08,39,11.10
2010,05,04,08,40,13.80
2010,05,04,08,41,11.40
2010,05,04,08,42,15.60
2010,05,04,08,43,16.30
2010,05,04,08,44,18.20
2010,05,04,08,45,19.80
2010,05,04,08,46,16.60
2010,05,04,08,47,11.30
2010,05,04,08,48,14.10
2010,05,04,08,49,15.50
2010,05,04,08,50,17.80
2010,05,04,08,51,15.00
2010,05,04,08,52,17.60
2010,05,04,08,53,14.90
2010,05,04,08,54,17.70
2010,05,04,08,55,16.60
2010,05,04,08,56,17.10
2010,05,04,08,57,16.00
2010,05,04,08,58,17.10
2010,05,04,08,59,17.40
2010,05,04,09,00,19.50
2010,05,04,09,01,14.00
2010,05,04,09,02,15.10
2010,05,04,09,03,21.60
2010,05,04,09,04,13.80
2010,05,04,09,05,10.80
2010,05,04,09,06,11.50
2010,05,04,09,07,11.50
2010,05,04,09,08,17.90
2010,05,04,09,09,19.80
2010,05,04,09,10,14.60
2010,05,04,09,11,20.30
2010,05,04,09,12,17.00
2010,05,04,09,13,20.00
2010,05,04,09,14,20.30
2010,05,04,09,15,18.60
2010,05,04,09,16,15.20
2010,05,04,09,17,18.80
2010,05,04,09,18,19.70
2010,05,04,09,19,18.90
2010,05,04,09,20,18.10
2010,05,04,09,21,14.10
2010,05,04,09,22,20.20
2010,05,04,09,23,17.20
2010,05,04,09,24,13.90
2010,05,04,09,25,13.10
2010,05,04,09,26,11.40
2010,05,04,09,27,12.40
2010,05,04,09,28,20.90
2010,05,04,09,29,24.10
2010,05,04,09,30,21.90
2010,05,04,09,31,21.10
2010,05,04,09,32,17.70
2010,05,04,09,33,15.70
2010,05,04,09,34,21.30
2010,05,04,09,35,26.10
2010,05,04,09,36,20.30
2010,05,04,09,37,13.20
2010,05,04,09,38,15.80
2010,05,04,09,39,16.50
2010,05,04,09,40,17.00
2010,05,04,09,41,20.90
2010,05,04,09,42,26.40
2010,05,04,09,43,21.30
2010,05,04,09,44,21.30
2010,05,04,09,45,18.60
2010,05,04,09,46,28.10
2010,05,04,09,47,23.30
2010,05,04,09,48,21.70
2010,05,04,09,49,23.00
2010,05,04,09,50,19.90
2010,05,04,09,51,18.30
2010,05,04,09,52,20.60
2010,05,04,09,53,21.80
2010,05,04,09,54,16.40
2010,05,04,09,55,18.10
2010,05,04,09,56,18.90
2010,05,04,09,57,21.60
2010,05,04,09,58,19.80
2010,05,04,09,59,20.50
2010,05,04,10,00,17.80
2010,05,04,10,01,23.80
2010,05,04,10,02,24.00
2010,05,04,10,03,20.60
2010,05,04,10,04,22.30
2010,05,04,10,05,19.70
2010,05,04,10,06,19.70
2010,05,04,10,07,20.60
2010,05,04,10,08,18.10
2010,05,04,10,09,16.10
2010,05,04,10,10,26.60
2010,05,04,10,11,21.90
2010,05,04,10,12,23.60
2010,05,04,10,13,19.10
2010,05,04,10,14,22.10
2010,05,04,10,15,24.60
2010,05,04,10,16,22.40
2010,05,04,10,17,18.90
2010,05,04,10,18,18.50
2010,05,04,10,19,20.50
2010,05,04,10,20,23.50
2010,05,04,10,21,26.80
2010,05,04,10,22,26.20
2010,05,04,10,23,21.10
2010,05,04,10,24,29.40
2010,05,04,10,25,23.80
2010,05,04,10,26,19.40
2010,05,04,10,27,23.50
2010,05,04,10,28,20.40
2010,05,04,10,29,18.10
2010,05,04,10,30,19.90
2010,05,04,10,31,18.20
2010,05,04,10,32,20.70
2010,05,04,10,33,25.70
2010,05,04,10,34,24.10
2010,05,04,10,35,24.80
2010,05,04,10,36,26.20
2010,05,04,10,37,20.20
2010,05,04,10,38,26.20
2010,05,04,10,39,21.70
2010,05,04,10,40,13.30
2010,05,04,10,41,15.20
2010,05,04,10,42,17.40
2010,05,04,10,43,16.30
2010,05,04,10,44,20.40
2010,05,04,10,45,19.20
2010,05,04,10,46,18.80
2010,05,04,10,47,19.00
2010,05,04,10,48,21.00
2010,05,04,10,49,24.80
2010,05,04,10,50,23.60
2010,05,04,10,51,22.40
2010,05,04,10,52,21.30
2010,05,04,10,53,18.60
2010,05,04,10,54,18.70
2010,05,04,10,55,17.90
2010,05,04,10,56,17.30
2010,05,04,10,57,17.40
2010,05,04,10,58,17.70
2010,05,04,10,59,17.40
2010,05,04,11,00,16.50
2010,05,04,11,01,14.70
2010,05,04,11,02,21.90
2010,05,04,11,03,21.60
2010,05,04,11,04,16.10
2010,05,04,11,05,20.20
2010,05,04,11,06,17.30
2010,05,04,11,07,18.10
2010,05,04,11,08,14.60
2010,05,04,11,09,14.10
2010,05,04,11,10,23.30
2010,05,04,11,11,19.00
2010,05,04,11,12,24.00
2010,05,04,11,13,19.10
2010,05,04,11,14,15.20
2010,05,04,11,15,19.10
2010,05,04,11,16,11.50
2010,05,04,11,17,13.00
2010,05,04,11,18,18.00
2010,05,04,11,19,16.90
2010,05,04,11,20,13.20
2010,05,04,11,21,16.10
2010,05,04,11,22,16.00
2010,05,04,11,23,19.10
2010,05,04,11,24,17.10
2010,05,04,11,25,11.40
2010,05,04,11,26,8.80
2010,05,04,11,27,15.20
2010,05,04,11,28,13.40
2010,05,04,11,29,11.90
2010,05,04,11,30,12.80
2010,05,04,11,31,17.00
2010,05,04,11,32,17.00
2010,05,04,11,33,14.60
2010,05,04,11,34,11.80
2010,05,04,11,35,11.90
2010,05,04,11,36,10.40
2010,05,04,11,37,10.00
2010,05,04,11,38,16.90
2010,05,04,11,39,8.80
2010,05,04,11,40,17.40
2010,05,04,11,41,14.40
2010,05,04,11,42,11.20
2010,05,04,11,43,15.80
2010,05,04,11,44,14.40
2010,05,04,11,45,20.50
2010,05,04,11,46,11.90
2010,05,04,11,47,13.10
2010,05,04,11,48,14.60
2010,05,04,11,49,14.40
2010,05,04,11,50,15.90
2010,05,04,11,51,17.50
2010,05,04,11,52,19.80
2010,05,04,11,53,13.50
2010,05,04,11,54,15.20
2010,05,04,11,55,13.00
2010,05,04,11,56,12.10
2010,05,04,11,57,18.20
2010,05,04,11,58,20.20
2010,05,04,11,59,17.10
2010,05,04,12,00,22.90
2010,05,04,12,01,18.30
2010,05,04,12,02,26.20
2010,05,04,12,03,23.00
2010,05,04,12,04,24.50
2010,05,04,12,05,26.90
2010,05,04,12,06,22.40
2010,05,04,12,07,19.00
2010,05,04,12,08,23.60
2010,05,04,12,09,28.10
2010,05,04,12,10,25.50
2010,05,04,12,11,22.40
2010,05,04,12,12,23.60
2010,05,04,12,13,21.90
2010,05,04,12,14,19.00
2010,05,04,12,15,26.50
2010,05,04,12,16,23.70
2010,05,04,12,17,23.50
2010,05,04,12,18,25.50
2010,05,04,12,19,23.40
2010,05,04,12,20,20.20
2010,05,04,12,21,21.00
2010,05,04,12,22,28.30
2010,05,04,12,23,26.70
2010,05,04,12,24,22.90
2010,05,04,12,25,19.20
2010,05,04,12,26,20.50
2010,05,04,12,27,17.10
2010,05,04,12,28,18.00
2010,05,04,12,29,18.20
2010,05,04,12,30,23.70
2010,05,04,12,31,22.70
2010,05,04,12,32,16.20
2010,05,04,12,33,14.80
2010,05,04,12,34,18.60
2010,05,04,12,35,17.50
2010,05,04,12,36,16.80
2010,05,04,12,37,13.80
2010,05,04,12,38,19.90
2010,05,04,12,39,23.50
2010,05,04,12,40,22.80
2010,05,04,12,41,20.70
2010,05,04,12,42,19.10
2010,05,04,12,43,18.50
2010,05,04,12,44,15.20
2010,05,04,12,45,21.30
2010,05,04,12,46,24.40
2010,05,04,12,47,15.80
2010,05,04,12,48,17.10
2010,05,04,12,49,16.80
2010,05,04,12,50,17.80
2010,05,04,12,51,18.50
2010,05,04,12,52,13.70
2010,05,04,12,53,15.40
2010,05,04,12,54,21.40
2010,05,04,12,55,19.70
2010,05,04,12,56,16.90
2010,05,04,12,57,18.90
2010,05,04,12,58,16.80
2010,05,04,12,59,12.40
2010,05,04,13,00,15.60
2010,05,04,13,01,18.50
2010,05,04,13,02,19.40
2010,05,04,13,03,19.80
2010,05,04,13,04,20.20
2010,05,04,13,05,20.40
2010,05,04,13,06,19.90
2010,05,04,13,07,15.20
2010,05,04,13,08,23.60
2010,05,04,13,09,18.80
2010,05,04,13,10,24.30
2010,05,04,13,11,22.00
2010,05,04,13,12,17.90
2010,05,04,13,13,17.90
2010,05,04,13,14,14.60
2010,05,04,13,15,14.70
2010,05,04,13,16,25.10
2010,05,04,13,17,22.60
2010,05,04,13,18,17.90
2010,05,04,13,19,18.20
2010,05,04,13,20,13.40
2010,05,04,13,21,18.20
2010,05,04,13,22,20.80
2010,05,04,13,23,18.60
2010,05,04,13,24,21.60
2010,05,04,13,25,20.90
2010,05,04,13,26,19.40
2010,05,04,13,27,15.50
2010,05,04,13,28,17.10
2010,05,04,13,29,21.00
2010,05,04,13,30,17.20
2010,05,04,13,31,17.80
2010,05,04,13,32,16.70
2010,05,04,13,33,20.50
2010,05,04,13,34,24.50
2010,05,04,13,35,27.00
2010,05,04,13,36,17.10
2010,05,04,13,37,21.50
2010,05,04,13,38,19.10
2010,05,04,13,39,25.50
2010,05,04,13,40,19.90
2010,05,04,13,41,16.20
2010,05,04,13,42,19.20
2010,05,04,13,43,20.80
2010,05,04,13,44,17.10
2010,05,04,13,45,13.60
2010,05,04,13,46,15.70
2010,05,04,13,47,20.90
2010,05,04,13,48,19.20
2010,05,04,13,49,14.70
2010,05,04,13,50,16.50
2010,05,04,13,51,19.10
2010,05,04,13,52,18.70
2010,05,04,13,53,17.70
2010,05,04,13,54,13.60
2010,05,04,13,55,24.00
2010,05,04,13,56,17.10
2010,05,04,13,57,23.00
2010,05,04,13,58,13.00
2010,05,04,13,59,16.70
2010,05,04,14,00,19.80
2010,05,04,14,01,13.60
2010,05,04,14,02,15.90
2010,05,04,14,03,20.80
2010,05,04,14,04,19.50
2010,05,04,14,05,13.20
2010,05,04,14,06,18.60
2010,05,04,14,07,20.40
2010,05,04,14,08,21.70
2010,05,04,14,09,25.10
2010,05,04,14,10,20.30
2010,05,04,14,11,16.60
2010,05,04,14,12,12.50
2010,05,04,14,13,14.80
2010,05,04,14,14,17.90
2010,05,04,14,15,17.20
2010,05,04,14,16,16.20
2010,05,04,14,17,20.60
2010,05,04,14,18,19.70
2010,05,04,14,19,19.30
2010,05,04,14,20,18.90
2010,05,04,14,21,13.80
2010,05,04,14,22,10.80
2010,05,04,14,23,12.40
2010,05,04,14,24,13.30
2010,05,04,14,25,14.90
2010,05,04,14,26,16.30
2010,05,04,14,27,19.60
2010,05,04,14,28,17.70
2010,05,04,14,29,16.30
2010,05,04,14,30,13.80
2010,05,04,14,31,15.20
2010,05,04,14,32,20.40
2010,05,04,14,33,14.50
2010,05,04,14,34,17.50
2010,05,04,14,35,11.00
2010,05,04,14,36,9.20
2010,05,04,14,37,9.70
2010,05,04,14,38,17.80
2010,05,04,14,39,16.30
2010,05,04,14,40,19.80
2010,05,04,14,41,14.20
2010,05,04,14,42,11.80
2010,05,04,14,43,15.20
2010,05,04,14,44,13.00
2010,05,04,14,45,14.30
2010,05,04,14,46,15.50
2010,05,04,14,47,14.50
2010,05,04,14,48,17.00
2010,05,04,14,49,17.30
2010,05,04,14,50,15.80
2010,05,04,14,51,12.50
2010,05,04,14,52,16.30
2010,05,04,14,53,16.10
2010,05,04,14,54,10.90
2010,05,04,14,55,14.90
2010,05,04,14,56,13.80
2010,05,04,14,57,11.00
2010,05,04,14,58,13.00
2010,05,04,14,59,13.50
2010,05,04,15,00,21.20
2010,05,04,15,01,15.90
2010,05,04,15,02,13.50
2010,05,04,15,03,17.10
2010,05,04,15,04,13.90
2010,05,04,15,05,11.60
2010,05,04,15,06,20.00
2010,05,04,15,07,23.60
2010,05,04,15,08,16.50
2010,05,04,15,09,14.50
2010,05,04,15,10,17.30
2010,05,04,15,11,16.70
2010,05,04,15,12,22.10
2010,05,04,15,13,20.40
2010,05,04,15,14,22.80
2010,05,04,15,15,21.30
2010,05,04,15,16,12.70
2010,05,04,15,17,18.60
2010,05,04,15,18,23.40
2010,05,04,15,19,23.00
2010,05,04,15,20,12.40
2010,05,04,15,21,14.50
2010,05,04,15,22,27.10
2010,05,04,15,23,18.60
2010,05,04,15,24,17.00
2010,05,04,15,25,22.10
2010,05,04,15,26,22.60
2010,05,04,15,27,23.10
2010,05,04,15,28,23.50
2010,05,04,15,29,26.70
2010,05,04,15,30,22.60
2010,05,04,15,31,24.00
2010,05,04,15,32,18.80
2010,05,04,15,33,20.80
2010,05,04,15,34,25.10
2010,05,04,15,35,19.10
2010,05,04,15,36,21.30
2010,05,04,15,37,19.00
2010,05,04,15,38,18.70
2010,05,04,15,39,16.90
2010,05,04,15,40,12.80
2010,05,04,15,41,19.90
2010,05,04,15,42,15.20
2010,05,04,15,43,23.60
2010,05,04,15,44,21.60
2010,05,04,15,45,21.00
2010,05,04,15,46,16.30
2010,05,04,15,47,15.40
2010,05,04,15,48,17.80
2010,05,04,15,49,17.10
2010,05,04,15,50,19.80
2010,05,04,15,51,21.90
2010,05,04,15,52,22.50
2010,05,04,15,53,25.80
2010,05,04,15,54,26.30
2010,05,04,15,55,28.50
2010,05,04,15,56,29.80
2010,05,04,15,57,23.90
2010,05,04,15,58,27.00
2010,05,04,15,59,26.50
2010,05,04,16,00,19.70
2010,05,04,16,01,21.90
2010,05,04,16,02,25.90
2010,05,04,16,03,24.10
2010,05,04,16,04,20.10
2010,05,04,16,05,30.60
2010,05,04,16,06,18.60
2010,05,04,16,07,27.00
2010,05,04,16,08,20.90
2010,05,04,16,09,21.60
2010,05,04,16,10,17.70
2010,05,04,16,11,23.20
2010,05,04,16,12,17.40
2010,05,04,16,13,22.80
2010,05,04,16,14,17.70
2010,05,04,16,15,21.90
2010,05,04,16,16,18.80
2010,05,04,16,17,24.90
2010,05,04,16,18,24.90
2010,05,04,16,19,20.90
2010,05,04,16,20,23.50
2010,05,04,16,21,20.10
2010,05,04,16,22,23.30
2010,05,04,16,23,21.00
2010,05,04,16,24,16.20
2010,05,04,16,25,21.20
2010,05,04,16,26,19.50
2010,05,04,16,27,14.00
2010,05,04,16,28,17.00
2010,05,04,16,29,19.30
2010,05,04,16,30,17.80
2010,05,04,16,31,21.20
2010,05,04,16,32,13.90
2010,05,04,16,33,7.90
2010,05,04,16,34,4.80
2010,05,04,16,35,7.50
2010,05,04,16,36,7.90
2010,05,04,16,37,2.80
2010,05,04,16,38,9.20
2010,05,04,16,39,10.90
2010,05,04,16,40,6.50
2010,05,04,16,41,7.40
2010,05,04,16,42,11.20
2010,05,04,16,43,11.60
2010,05,04,16,44,9.50
2010,05,04,16,45,6.40
2010,05,04,16,46,7.70
2010,05,04,16,47,8.90
2010,05,04,16,48,7.60
2010,05,04,16,49,11.90
2010,05,04,16,50,8.00
2010,05,04,16,51,4.70
2010,05,04,16,52,5.60
2010,05,04,16,53,8.10
2010,05,04,16,54,8.60
2010,05,04,16,55,7.10
2010,05,04,16,56,5.00
2010,05,04,16,57,8.80
2010,05,04,16,58,4.40
2010,05,04,16,59,3.90
2010,05,04,17,00,9.70
2010,05,04,17,01,12.50
2010,05,04,17,02,7.70
2010,05,04,17,03,3.90
2010,05,04,17,04,2.20
2010,05,04,17,05,5.10
2010,05,04,17,06,11.30
2010,05,04,17,07,8.10
2010,05,04,17,08,5.90
2010,05,04,17,09,11.90
2010,05,04,17,10,10.90
2010,05,04,17,11,11.90
2010,05,04,17,12,9.80
2010,05,04,17,13,7.10
2010,05,04,17,14,7.10
2010,05,04,17,15,4.30
2010,05,04,17,16,7.50
2010,05,04,17,17,4.10
2010,05,04,17,18,4.30
2010,05,04,17,19,6.40
2010,05,04,17,20,5.30
2010,05,04,17,21,11.00
2010,05,04,17,22,6.80
2010,05,04,17,23,4.80